TVF45BW LFPO-LIBR

Flight info

Callsign TVF45BW
Flight time 2h 9m
Altitude 37000
Route BUBLI DCT LUVAL DCT BEGAR DCT TRA DCT SUXAN/N0410F290 DCT ROSKA/N0389F270 DCT ROTAR DCT AIOSA L862 ENOXA
Aircraft A320/M-SBDE2E3FGHIJ1J5M1P2RWYZ/LB1D1G1

Departure

Time 2026-05-07 04:07
Airport Paris-Orly Airport (LFPO)

Arrival

Time 2026-05-07 06:17
Airport Brindisi Airport (LIBR)
Time Latitude Longitude Altitude Speed Heading
2026-05-07 03:41 48.72324 2.36142 298 ft 0 kts 180°
2026-05-07 03:58 48.72334 2.36142 298 ft 4 kts 180°
2026-05-07 03:58 48.72361 2.36141 298 ft 4 kts 181°
2026-05-07 03:58 48.72388 2.36144 298 ft 4 kts 193°
2026-05-07 03:58 48.72409 2.36159 299 ft 4 kts 248°
2026-05-07 03:59 48.72416 2.36193 299 ft 3 kts 254°
2026-05-07 03:59 48.72417 2.36199 299 ft 0 kts 254°
2026-05-07 04:01 48.72411 2.36167 293 ft 6 kts 254°
2026-05-07 04:02 48.72400 2.36111 296 ft 5 kts 254°
2026-05-07 04:02 48.72387 2.36041 297 ft 11 kts 254°
2026-05-07 04:02 48.72361 2.35898 294 ft 16 kts 255°
2026-05-07 04:02 48.72329 2.35724 295 ft 17 kts 254°
2026-05-07 04:03 48.72307 2.35602 293 ft 9 kts 254°
2026-05-07 04:03 48.72316 2.35515 297 ft 10 kts 297°
2026-05-07 04:03 48.72364 2.35419 296 ft 12 kts 320°
2026-05-07 04:03 48.72445 2.35364 297 ft 14 kts 342°
2026-05-07 04:04 48.72544 2.35321 294 ft 16 kts 344°
2026-05-07 04:04 48.72655 2.35275 295 ft 16 kts 345°
2026-05-07 04:04 48.72755 2.35260 294 ft 15 kts 14°
2026-05-07 04:04 48.72864 2.35314 294 ft 17 kts 18°
2026-05-07 04:05 48.72984 2.35375 296 ft 19 kts 18°
2026-05-07 04:05 48.73077 2.35421 294 ft 13 kts 18°
2026-05-07 04:05 48.73166 2.35466 297 ft 13 kts 18°
2026-05-07 04:05 48.73234 2.35466 296 ft 10 kts 335°
2026-05-07 04:06 48.73277 2.35379 294 ft 10 kts 287°
2026-05-07 04:06 48.73268 2.35280 296 ft 9 kts 244°
2026-05-07 04:06 48.73204 2.35100 294 ft 47 kts 242°
2026-05-07 04:06 48.72929 2.34323 296 ft 117 kts 242°
2026-05-07 04:07 48.72470 2.32997 402 ft 158 kts 244°
2026-05-07 04:07 48.71966 2.31565 1175 ft 153 kts 241°
2026-05-07 04:07 48.71410 2.30211 1921 ft 154 kts 238°
2026-05-07 04:07 48.70822 2.28850 2581 ft 155 kts 237°
2026-05-07 04:08 48.70229 2.27483 3215 ft 156 kts 237°
2026-05-07 04:08 48.69624 2.26084 3721 ft 167 kts 237°
2026-05-07 04:08 48.68950 2.24516 4041 ft 189 kts 238°
2026-05-07 04:08 48.68188 2.22748 4340 ft 213 kts 238°
2026-05-07 04:09 48.67124 2.21035 4738 ft 239 kts 208°
2026-05-07 04:09 48.65439 2.20551 5172 ft 262 kts 170°
2026-05-07 04:09 48.63748 2.21586 5914 ft 271 kts 147°
2026-05-07 04:09 48.62213 2.23265 6831 ft 275 kts 141°
2026-05-07 04:10 48.60717 2.25104 7707 ft 279 kts 141°
2026-05-07 04:10 48.59188 2.26934 8600 ft 283 kts 143°
2026-05-07 04:10 48.57589 2.28721 9490 ft 288 kts 145°
2026-05-07 04:10 48.55928 2.30459 10282 ft 296 kts 147°
2026-05-07 04:11 48.54142 2.32240 10588 ft 319 kts 148°
2026-05-07 04:11 48.52362 2.34391 11082 ft 335 kts 134°
2026-05-07 04:11 48.50973 2.37192 11792 ft 342 kts 119°
2026-05-07 04:11 48.50099 2.40541 12551 ft 347 kts 103°
2026-05-07 04:12 48.49863 2.44168 13327 ft 350 kts 86°
2026-05-07 04:12 48.50087 2.47843 14067 ft 354 kts 83°
2026-05-07 04:12 48.50332 2.51551 14748 ft 357 kts 83°
2026-05-07 04:12 48.50577 2.55298 15428 ft 361 kts 83°
2026-05-07 04:13 48.50820 2.59083 16106 ft 365 kts 84°
2026-05-07 04:13 48.51063 2.62902 16809 ft 367 kts 83°
2026-05-07 04:13 48.51304 2.66756 17490 ft 371 kts 83°
2026-05-07 04:13 48.51539 2.70600 18127 ft 375 kts 84°
2026-05-07 04:14 48.51774 2.74537 18716 ft 379 kts 84°
2026-05-07 04:14 48.52016 2.78510 19291 ft 382 kts 83°
2026-05-07 04:14 48.52543 2.82444 19833 ft 384 kts 72°
2026-05-07 04:14 48.53557 2.86177 20398 ft 386 kts 60°
2026-05-07 04:15 48.55024 2.89574 20939 ft 388 kts 50°
2026-05-07 04:15 48.56799 2.92657 21478 ft 391 kts 47°
2026-05-07 04:15 48.58599 2.95756 22004 ft 394 kts 47°
2026-05-07 04:15 48.60381 2.98847 22526 ft 397 kts 48°
2026-05-07 04:16 48.62200 3.02012 23058 ft 400 kts 48°
2026-05-07 04:16 48.64029 3.05206 23568 ft 404 kts 48°
2026-05-07 04:16 48.65870 3.08427 24031 ft 406 kts 48°
2026-05-07 04:16 48.67719 3.11663 24486 ft 407 kts 48°
2026-05-07 04:17 48.69577 3.14915 24931 ft 409 kts 48°
2026-05-07 04:17 48.71446 3.18179 25374 ft 411 kts 48°
2026-05-07 04:17 48.73324 3.21453 25804 ft 413 kts 48°
2026-05-07 04:17 48.75209 3.24754 26229 ft 415 kts 48°
2026-05-07 04:18 48.77073 3.28032 26644 ft 417 kts 48°
2026-05-07 04:18 48.78893 3.31470 27050 ft 420 kts 55°
2026-05-07 04:18 48.80315 3.35358 27453 ft 424 kts 65°
2026-05-07 04:18 48.81251 3.39609 27847 ft 428 kts 76°
2026-05-07 04:19 48.81669 3.44093 28238 ft 431 kts 86°
2026-05-07 04:19 48.81560 3.48651 28619 ft 435 kts 94°
2026-05-07 04:19 48.81272 3.53224 29029 ft 436 kts 94°
2026-05-07 04:19 48.80979 3.57815 29440 ft 438 kts 94°
2026-05-07 04:20 48.80680 3.62419 29820 ft 440 kts 94°
2026-05-07 04:20 48.80385 3.66982 30161 ft 441 kts 94°
2026-05-07 04:20 48.80085 3.71622 30450 ft 444 kts 94°
2026-05-07 04:21 48.79476 3.80975 30999 ft 448 kts 94°
2026-05-07 04:21 48.79163 3.85685 31273 ft 450 kts 94°
2026-05-07 04:21 48.78847 3.90413 31529 ft 452 kts 95°
2026-05-07 04:21 48.78528 3.95157 31890 ft 452 kts 95°
2026-05-07 04:22 48.78204 3.99889 32273 ft 451 kts 95°
2026-05-07 04:22 48.77878 4.04620 32641 ft 451 kts 95°
2026-05-07 04:22 48.77503 4.09269 32998 ft 451 kts 99°
2026-05-07 04:22 48.76713 4.13864 33356 ft 451 kts 109°
2026-05-07 04:23 48.75456 4.18225 33725 ft 452 kts 118°
2026-05-07 04:23 48.73779 4.22238 34073 ft 451 kts 125°
2026-05-07 04:23 48.71957 4.26108 34376 ft 451 kts 125°
2026-05-07 04:23 48.70136 4.29981 34665 ft 451 kts 125°
2026-05-07 04:24 48.68317 4.33853 34946 ft 452 kts 125°
2026-05-07 04:24 48.66494 4.37730 35206 ft 452 kts 126°
2026-05-07 04:24 48.64671 4.41601 35463 ft 452 kts 126°
2026-05-07 04:24 48.62870 4.45422 35716 ft 452 kts 126°
2026-05-07 04:25 48.61040 4.49294 35966 ft 453 kts 126°
2026-05-07 04:25 48.59210 4.53164 36207 ft 453 kts 126°
2026-05-07 04:25 48.57378 4.57035 36444 ft 453 kts 126°
2026-05-07 04:25 48.55542 4.60900 36681 ft 453 kts 126°
2026-05-07 04:26 48.53700 4.64766 36893 ft 454 kts 126°
2026-05-07 04:26 48.51855 4.68633 36993 ft 454 kts 126°
2026-05-07 04:26 48.48179 4.76335 37002 ft 452 kts 126°
2026-05-07 04:27 48.44533 4.83966 37002 ft 452 kts 127°
2026-05-07 04:27 48.40856 4.91633 37002 ft 451 kts 127°
2026-05-07 04:28 48.37168 4.99273 37005 ft 451 kts 127°
2026-05-07 04:28 48.33474 5.06903 37004 ft 451 kts 127°
2026-05-07 04:29 48.30049 5.14710 36999 ft 452 kts 116°
2026-05-07 04:29 48.28161 5.23688 36989 ft 453 kts 102°
2026-05-07 04:30 48.26819 5.32923 36990 ft 453 kts 103°
2026-05-07 04:30 48.25431 5.42151 36992 ft 453 kts 103°
2026-05-07 04:31 48.24041 5.51311 36991 ft 453 kts 103°
2026-05-07 04:31 48.22644 5.60538 36989 ft 454 kts 103°
2026-05-07 04:32 48.21245 5.69769 36991 ft 454 kts 103°
2026-05-07 04:32 48.19842 5.79007 36998 ft 455 kts 103°
2026-05-07 04:33 48.18431 5.88251 37003 ft 455 kts 103°
2026-05-07 04:33 48.17010 5.97425 37006 ft 455 kts 104°
2026-05-07 04:34 48.15573 6.06644 37000 ft 455 kts 104°
2026-05-07 04:34 48.14130 6.15868 36996 ft 455 kts 104°
2026-05-07 04:35 48.12682 6.25075 36993 ft 455 kts 104°
2026-05-07 04:35 48.11239 6.34225 36990 ft 455 kts 104°
2026-05-07 04:36 48.09785 6.43428 36983 ft 455 kts 104°
2026-05-07 04:36 48.08319 6.52638 36983 ft 455 kts 104°
2026-05-07 04:37 48.06834 6.61832 36985 ft 455 kts 104°
2026-05-07 04:37 48.05354 6.70967 36993 ft 455 kts 104°
2026-05-07 04:38 48.03859 6.80166 36997 ft 456 kts 104°
2026-05-07 04:38 48.02362 6.89359 36994 ft 455 kts 105°
2026-05-07 04:39 48.00855 6.98546 36990 ft 455 kts 105°
2026-05-07 04:39 47.99339 7.07729 36993 ft 456 kts 105°
2026-05-07 04:40 47.97823 7.16856 37004 ft 456 kts 105°
2026-05-07 04:40 47.96296 7.26036 36999 ft 456 kts 105°
2026-05-07 04:41 47.94756 7.35212 37003 ft 456 kts 105°
2026-05-07 04:41 47.93205 7.44382 36998 ft 456 kts 105°
2026-05-07 04:42 47.91659 7.53476 36995 ft 456 kts 105°
2026-05-07 04:42 47.89797 7.62475 36992 ft 454 kts 112°
2026-05-07 04:43 47.87576 7.71277 36988 ft 454 kts 112°
2026-05-07 04:43 47.85338 7.80079 36989 ft 455 kts 112°
2026-05-07 04:44 47.83094 7.88890 36996 ft 455 kts 112°
2026-05-07 04:44 47.80861 7.97644 36997 ft 456 kts 113°
2026-05-07 04:45 47.78601 8.06451 37003 ft 455 kts 113°
2026-05-07 04:45 47.76338 8.15237 37005 ft 456 kts 113°
2026-05-07 04:46 47.74069 8.24030 37002 ft 455 kts 113°
2026-05-07 04:46 47.71793 8.32810 37002 ft 455 kts 113°
2026-05-07 04:47 47.69475 8.41486 36996 ft 454 kts 118°
2026-05-07 04:47 47.66017 8.49214 36984 ft 449 kts 131°
2026-05-07 04:48 47.62129 8.56463 36985 ft 449 kts 131°
2026-05-07 04:48 47.58254 8.63720 36988 ft 449 kts 131°
2026-05-07 04:49 47.54402 8.70924 36993 ft 449 kts 131°
2026-05-07 04:49 47.50511 8.78153 36993 ft 449 kts 131°
2026-05-07 04:50 47.46606 8.85377 36985 ft 450 kts 131°
2026-05-07 04:50 47.42703 8.92596 36984 ft 450 kts 131°
2026-05-07 04:51 47.38827 8.99778 36989 ft 450 kts 131°
2026-05-07 04:51 47.34911 9.06998 37003 ft 451 kts 131°
2026-05-07 04:52 47.30986 9.14204 37003 ft 451 kts 132°
2026-05-07 04:52 47.27052 9.21406 37005 ft 451 kts 132°
2026-05-07 04:53 47.23140 9.28539 37019 ft 450 kts 132°
2026-05-07 04:53 47.19200 9.35699 37003 ft 450 kts 132°
2026-05-07 04:54 47.15264 9.42857 37007 ft 450 kts 133°
2026-05-07 04:54 47.11323 9.49996 36999 ft 450 kts 133°
2026-05-07 04:55 47.07379 9.57133 37000 ft 450 kts 133°
2026-05-07 04:55 47.03460 9.64202 37000 ft 449 kts 133°
2026-05-07 04:56 46.99509 9.71294 36991 ft 449 kts 133°
2026-05-07 04:56 46.95557 9.78366 36983 ft 449 kts 133°
2026-05-07 04:57 46.91603 9.85438 36953 ft 449 kts 133°
2026-05-07 04:57 46.87669 9.92450 36969 ft 449 kts 134°
2026-05-07 04:58 46.83706 9.99496 36979 ft 449 kts 134°
2026-05-07 04:58 46.79747 10.06524 36978 ft 448 kts 134°
2026-05-07 04:59 46.75787 10.13537 36973 ft 448 kts 134°
2026-05-07 04:59 46.71822 10.20548 36947 ft 448 kts 134°
2026-05-07 05:00 46.67883 10.27498 36956 ft 447 kts 134°
2026-05-07 05:00 46.63905 10.34481 36970 ft 448 kts 135°
2026-05-07 05:01 46.59919 10.41458 36958 ft 448 kts 135°
2026-05-07 05:01 46.55930 10.48424 36958 ft 449 kts 134°
2026-05-07 05:02 46.52137 10.55652 36931 ft 451 kts 131°
2026-05-07 05:02 46.48545 10.63033 36948 ft 451 kts 130°
2026-05-07 05:03 46.44905 10.70436 36941 ft 450 kts 131°
2026-05-07 05:03 46.41209 10.77745 36948 ft 449 kts 132°
2026-05-07 05:04 46.37486 10.85007 36973 ft 449 kts 132°
2026-05-07 05:04 46.33790 10.92244 36989 ft 450 kts 132°
2026-05-07 05:05 46.30081 10.99518 37016 ft 449 kts 132°
2026-05-07 05:05 46.26376 11.06763 37018 ft 448 kts 132°
2026-05-07 05:06 46.22663 11.13980 37018 ft 448 kts 132°
2026-05-07 05:06 46.18952 11.21194 37009 ft 447 kts 132°
2026-05-07 05:07 46.15266 11.28348 36957 ft 447 kts 133°
2026-05-07 05:07 46.11555 11.35525 36970 ft 446 kts 133°
2026-05-07 05:08 46.07839 11.42693 36973 ft 446 kts 133°
2026-05-07 05:08 46.04113 11.49838 36973 ft 446 kts 133°
2026-05-07 05:09 46.00421 11.56928 36971 ft 446 kts 133°
2026-05-07 05:09 45.96702 11.64068 36952 ft 446 kts 133°
2026-05-07 05:10 45.92975 11.71189 36949 ft 446 kts 133°
2026-05-07 05:10 45.89236 11.78304 36954 ft 447 kts 133°
2026-05-07 05:11 45.86123 11.84210 36948 ft 447 kts 133°
2026-05-07 05:11 45.81765 11.92468 36938 ft 447 kts 133°
2026-05-07 05:12 45.78013 11.99560 36954 ft 446 kts 133°
2026-05-07 05:12 45.74260 12.06642 36958 ft 446 kts 134°
2026-05-07 05:13 45.70525 12.13660 36947 ft 446 kts 134°
2026-05-07 05:13 45.66757 12.20711 36942 ft 446 kts 134°
2026-05-07 05:14 45.63626 12.26576 36927 ft 446 kts 134°
2026-05-07 05:14 45.59857 12.33617 36944 ft 446 kts 134°
2026-05-07 05:15 45.56080 12.40644 36940 ft 446 kts 134°
2026-05-07 05:15 45.51693 12.48802 36945 ft 446 kts 134°
2026-05-07 05:16 45.48549 12.54634 36938 ft 446 kts 134°
2026-05-07 05:16 45.44763 12.61632 36931 ft 446 kts 134°
2026-05-07 05:17 45.40976 12.68620 36951 ft 446 kts 134°
2026-05-07 05:17 45.37186 12.75603 36954 ft 446 kts 134°
2026-05-07 05:18 45.33390 12.82560 36962 ft 445 kts 134°
2026-05-07 05:18 45.29974 12.89897 36946 ft 453 kts 125°
2026-05-07 05:19 45.26913 12.97714 36959 ft 449 kts 130°
2026-05-07 05:19 45.22889 13.04248 36966 ft 436 kts 143°
2026-05-07 05:20 45.18523 13.10240 36968 ft 437 kts 143°
2026-05-07 05:20 45.14192 13.16193 36980 ft 437 kts 143°
2026-05-07 05:21 45.07649 13.25182 36963 ft 437 kts 143°
2026-05-07 05:22 45.03275 13.31154 36969 ft 437 kts 143°
2026-05-07 05:22 44.98896 13.37125 36975 ft 437 kts 143°
2026-05-07 05:23 44.94549 13.43049 36954 ft 438 kts 143°
2026-05-07 05:23 44.90164 13.49005 36934 ft 438 kts 143°
2026-05-07 05:24 44.85770 13.54962 36951 ft 438 kts 143°
2026-05-07 05:24 44.81369 13.60914 36958 ft 438 kts 143°
2026-05-07 05:25 44.76998 13.66813 36965 ft 438 kts 143°
2026-05-07 05:25 44.72595 13.72750 36959 ft 439 kts 143°
2026-05-07 05:26 44.68186 13.78674 36958 ft 438 kts 143°
2026-05-07 05:26 44.63770 13.84582 36974 ft 438 kts 143°
2026-05-07 05:27 44.59384 13.90446 36985 ft 438 kts 143°
2026-05-07 05:27 44.54968 13.96346 36996 ft 438 kts 143°
2026-05-07 05:28 44.50545 14.02233 36991 ft 439 kts 143°
2026-05-07 05:28 44.46116 14.08114 36967 ft 439 kts 143°
2026-05-07 05:29 44.41678 14.13995 36989 ft 439 kts 143°
2026-05-07 05:29 44.37271 14.19823 36997 ft 439 kts 143°
2026-05-07 05:30 44.32831 14.25686 37000 ft 439 kts 143°
2026-05-07 05:30 44.28393 14.31541 36974 ft 439 kts 143°
2026-05-07 05:31 44.23945 14.37385 36984 ft 439 kts 143°
2026-05-07 05:31 44.19518 14.43183 36987 ft 440 kts 143°
2026-05-07 05:32 44.15053 14.49018 36989 ft 440 kts 143°
2026-05-07 05:32 44.10584 14.54858 36994 ft 441 kts 143°
2026-05-07 05:33 44.06113 14.60696 36997 ft 441 kts 143°
2026-05-07 05:33 44.01628 14.66516 36998 ft 441 kts 143°
2026-05-07 05:34 43.97173 14.72289 37008 ft 441 kts 143°
2026-05-07 05:34 43.92686 14.78091 37010 ft 440 kts 143°
2026-05-07 05:35 43.88204 14.83880 37014 ft 440 kts 143°
2026-05-07 05:35 43.83725 14.89667 37011 ft 440 kts 143°
2026-05-07 05:36 43.79272 14.95399 36995 ft 440 kts 143°
2026-05-07 05:36 43.74778 15.01155 37016 ft 441 kts 143°
2026-05-07 05:37 43.70277 15.06917 37012 ft 440 kts 143°
2026-05-07 05:37 43.65792 15.12641 36999 ft 439 kts 143°
2026-05-07 05:38 43.61342 15.18320 36991 ft 439 kts 143°
2026-05-07 05:38 43.56858 15.24034 36974 ft 439 kts 143°
2026-05-07 05:39 43.52371 15.29724 36957 ft 438 kts 143°
2026-05-07 05:39 43.47890 15.35392 36979 ft 437 kts 143°
2026-05-07 05:40 43.43448 15.41014 36991 ft 436 kts 143°
2026-05-07 05:40 43.38976 15.46657 36989 ft 436 kts 143°
2026-05-07 05:41 43.34504 15.52289 36984 ft 436 kts 143°
2026-05-07 05:41 43.30027 15.57906 36988 ft 436 kts 143°
2026-05-07 05:42 43.25580 15.63481 36988 ft 436 kts 143°
2026-05-07 05:42 43.21105 15.69089 36989 ft 436 kts 142°
2026-05-07 05:43 43.16625 15.74692 36990 ft 436 kts 143°
2026-05-07 05:43 43.12146 15.80270 36988 ft 435 kts 143°
2026-05-07 05:44 43.07661 15.85836 36991 ft 435 kts 143°
2026-05-07 05:44 43.03205 15.91362 36992 ft 436 kts 143°
2026-05-07 05:45 42.98713 15.96921 37000 ft 435 kts 143°
2026-05-07 05:45 42.94226 16.02471 36985 ft 435 kts 143°
2026-05-07 05:46 42.89730 16.08014 36991 ft 435 kts 143°
2026-05-07 05:46 42.85264 16.13512 36980 ft 436 kts 142°
2026-05-07 05:47 42.80754 16.19055 36992 ft 437 kts 143°
2026-05-07 05:47 42.76238 16.24589 36998 ft 437 kts 143°
2026-05-07 05:48 42.71711 16.30116 37004 ft 437 kts 143°
2026-05-07 05:48 42.67218 16.35605 37005 ft 438 kts 143°
2026-05-07 05:49 42.62690 16.41132 37001 ft 437 kts 143°
2026-05-07 05:49 42.58163 16.46636 37013 ft 437 kts 143°
2026-05-07 05:50 42.53628 16.52130 37023 ft 437 kts 143°
2026-05-07 05:50 42.49122 16.57585 37029 ft 437 kts 143°
2026-05-07 05:51 42.44585 16.63073 37039 ft 437 kts 143°
2026-05-07 05:51 42.40042 16.68556 36774 ft 437 kts 143°
2026-05-07 05:51 42.37774 16.71289 36493 ft 436 kts 143°
2026-05-07 05:52 42.35514 16.74007 36233 ft 434 kts 143°
2026-05-07 05:52 42.33258 16.76713 35979 ft 433 kts 143°
2026-05-07 05:52 42.31006 16.79414 35729 ft 433 kts 143°
2026-05-07 05:52 42.28789 16.82074 35475 ft 431 kts 143°
2026-05-07 05:53 42.26557 16.84756 34977 ft 427 kts 143°
2026-05-07 05:53 42.24341 16.87408 34437 ft 424 kts 144°
2026-05-07 05:53 42.22141 16.90032 33863 ft 421 kts 144°
2026-05-07 05:53 42.19955 16.92637 33322 ft 417 kts 144°
2026-05-07 05:54 42.17800 16.95212 32796 ft 412 kts 144°
2026-05-07 05:54 42.15664 16.97766 32253 ft 408 kts 144°
2026-05-07 05:54 42.13549 17.00290 31736 ft 404 kts 144°
2026-05-07 05:54 42.11454 17.02783 31241 ft 400 kts 144°
2026-05-07 05:55 42.09379 17.05254 30727 ft 397 kts 144°
2026-05-07 05:55 42.07349 17.07667 30249 ft 393 kts 144°
2026-05-07 05:55 42.05306 17.10088 29715 ft 389 kts 144°
2026-05-07 05:55 42.03290 17.12475 29240 ft 383 kts 144°
2026-05-07 05:56 42.01302 17.14827 28771 ft 378 kts 144°
2026-05-07 05:56 41.99341 17.17150 28328 ft 373 kts 144°
2026-05-07 05:56 41.97404 17.19443 27890 ft 368 kts 144°
2026-05-07 05:56 41.95494 17.21704 27476 ft 364 kts 144°
2026-05-07 05:57 41.93601 17.23853 27063 ft 357 kts 149°
2026-05-07 05:57 41.91528 17.25578 26660 ft 346 kts 159°
2026-05-07 05:57 41.89350 17.26880 26267 ft 340 kts 162°
2026-05-07 05:57 41.87180 17.28139 25881 ft 339 kts 162°
2026-05-07 05:58 41.85018 17.29403 25471 ft 338 kts 162°
2026-05-07 05:58 41.82863 17.30665 25066 ft 338 kts 162°
2026-05-07 05:58 41.80710 17.31924 24642 ft 337 kts 162°
2026-05-07 05:58 41.78558 17.33178 24222 ft 337 kts 162°
2026-05-07 05:59 41.76441 17.34412 23794 ft 336 kts 162°
2026-05-07 05:59 41.74297 17.35660 23309 ft 336 kts 162°
2026-05-07 05:59 41.72159 17.36903 22859 ft 334 kts 162°
2026-05-07 05:59 41.70028 17.38142 22421 ft 333 kts 162°
2026-05-07 06:00 41.67910 17.39374 21990 ft 331 kts 162°
2026-05-07 06:00 41.65804 17.40599 21562 ft 329 kts 161°
2026-05-07 06:00 41.63707 17.41816 21145 ft 328 kts 161°
2026-05-07 06:00 41.61617 17.43028 20726 ft 327 kts 161°
2026-05-07 06:01 41.59559 17.44220 20313 ft 327 kts 161°
2026-05-07 06:01 41.57475 17.45426 19893 ft 327 kts 161°
2026-05-07 06:01 41.55387 17.46631 19480 ft 327 kts 161°
2026-05-07 06:01 41.53301 17.47833 19077 ft 327 kts 161°
2026-05-07 06:02 41.51208 17.49037 18663 ft 328 kts 161°
2026-05-07 06:02 41.49112 17.50246 18235 ft 329 kts 161°
2026-05-07 06:02 41.47013 17.51454 17797 ft 328 kts 161°
2026-05-07 06:02 41.44919 17.52658 17402 ft 327 kts 161°
2026-05-07 06:03 41.42832 17.53861 16992 ft 326 kts 161°
2026-05-07 06:03 41.40779 17.55046 16595 ft 326 kts 161°
2026-05-07 06:03 41.38701 17.56242 16196 ft 325 kts 161°
2026-05-07 06:03 41.36624 17.57439 15802 ft 325 kts 161°
2026-05-07 06:04 41.34549 17.58633 15408 ft 325 kts 161°
2026-05-07 06:04 41.32476 17.59824 15023 ft 325 kts 161°
2026-05-07 06:04 41.30401 17.61013 14644 ft 325 kts 161°
2026-05-07 06:04 41.28325 17.62201 14246 ft 325 kts 161°
2026-05-07 06:05 41.26248 17.63391 13841 ft 325 kts 161°
2026-05-07 06:05 41.24201 17.64562 13427 ft 324 kts 161°
2026-05-07 06:05 41.22135 17.65743 13019 ft 322 kts 162°
2026-05-07 06:05 41.20080 17.66918 12614 ft 321 kts 162°
2026-05-07 06:06 41.18027 17.68052 12261 ft 317 kts 163°
2026-05-07 06:06 41.16013 17.69120 12107 ft 307 kts 164°
2026-05-07 06:06 41.14030 17.70150 11759 ft 305 kts 165°
2026-05-07 06:06 41.12062 17.71167 11407 ft 303 kts 165°
2026-05-07 06:07 41.10107 17.72178 11052 ft 300 kts 165°
2026-05-07 06:07 41.08194 17.73169 10699 ft 299 kts 165°
2026-05-07 06:07 41.06267 17.74170 10339 ft 297 kts 165°
2026-05-07 06:07 41.04353 17.75169 10022 ft 294 kts 164°
2026-05-07 06:08 41.02464 17.76159 9680 ft 290 kts 164°
2026-05-07 06:08 41.00595 17.77137 9288 ft 288 kts 164°
2026-05-07 06:08 40.98740 17.78106 8896 ft 285 kts 163°
2026-05-07 06:08 40.96903 17.79066 8476 ft 282 kts 163°
2026-05-07 06:09 40.95068 17.80024 7733 ft 284 kts 163°
2026-05-07 06:09 40.93254 17.80970 6999 ft 283 kts 162°
2026-05-07 06:09 40.91424 17.81901 6271 ft 279 kts 167°
2026-05-07 06:09 40.89560 17.82003 5579 ft 265 kts 199°
2026-05-07 06:10 40.88101 17.80714 5064 ft 247 kts 233°
2026-05-07 06:10 40.87342 17.78811 4620 ft 223 kts 242°
2026-05-07 06:10 40.86568 17.77160 4217 ft 202 kts 223°
2026-05-07 06:10 40.85433 17.76169 3871 ft 194 kts 199°
2026-05-07 06:11 40.84136 17.75797 3524 ft 189 kts 189°
2026-05-07 06:11 40.82866 17.75623 3188 ft 184 kts 177°
2026-05-07 06:11 40.81643 17.76007 2910 ft 177 kts 157°
2026-05-07 06:11 40.80639 17.76866 2869 ft 169 kts 145°
2026-05-07 06:12 40.79735 17.77796 2800 ft 161 kts 145°
2026-05-07 06:12 40.78882 17.78725 2726 ft 158 kts 140°
2026-05-07 06:12 40.78083 17.79705 2653 ft 156 kts 141°
2026-05-07 06:12 40.77288 17.80675 2570 ft 155 kts 141°
2026-05-07 06:13 40.76498 17.81639 2477 ft 155 kts 141°
2026-05-07 06:13 40.75711 17.82603 2249 ft 154 kts 140°
2026-05-07 06:13 40.74930 17.83560 2040 ft 153 kts 141°
2026-05-07 06:13 40.74162 17.84500 1833 ft 152 kts 141°
2026-05-07 06:14 40.73418 17.85414 1638 ft 139 kts 141°
2026-05-07 06:14 40.72743 17.86242 1449 ft 129 kts 141°
2026-05-07 06:14 40.72099 17.87033 1286 ft 125 kts 140°
2026-05-07 06:14 40.71468 17.87804 1123 ft 123 kts 140°
2026-05-07 06:15 40.70839 17.88571 967 ft 123 kts 140°
2026-05-07 06:15 40.70209 17.89342 810 ft 123 kts 139°
2026-05-07 06:15 40.69586 17.90103 664 ft 122 kts 138°
2026-05-07 06:15 40.68955 17.90835 500 ft 125 kts 138°
2026-05-07 06:16 40.68326 17.91638 316 ft 126 kts 134°
2026-05-07 06:16 40.67694 17.92424 145 ft 124 kts 136°
2026-05-07 06:16 40.67072 17.93184 43 ft 115 kts 136°
2026-05-07 06:16 40.66605 17.93756 40 ft 67 kts 137°
2026-05-07 06:17 40.66361 17.94051 41 ft 33 kts 137°
2026-05-07 06:17 40.66230 17.94210 40 ft 24 kts 137°
2026-05-07 06:17 40.66105 17.94364 40 ft 25 kts 137°
2026-05-07 06:17 40.65991 17.94500 39 ft 17 kts 138°
2026-05-07 06:18 40.65936 17.94540 39 ft 8 kts 195°
2026-05-07 06:18 40.65902 17.94488 41 ft 6 kts 234°
2026-05-07 06:18 40.65874 17.94441 42 ft 8 kts 232°
2026-05-07 06:18 40.65830 17.94366 43 ft 11 kts 232°
2026-05-07 06:19 40.65788 17.94294 44 ft 9 kts 232°
2026-05-07 06:19 40.65751 17.94229 44 ft 8 kts 232°
2026-05-07 06:19 40.65716 17.94170 44 ft 8 kts 232°
2026-05-07 06:19 40.65688 17.94120 44 ft 4 kts 235°
2026-05-07 06:20 40.65688 17.94091 44 ft 3 kts 296°
2026-05-07 06:20 40.65701 17.94078 42 ft 3 kts 323°
2026-05-07 06:20 40.65728 17.94052 44 ft 5 kts 323°
2026-05-07 06:20 40.65750 17.94028 44 ft 4 kts 322°
2026-05-07 06:21 40.65760 17.94019 44 ft 0 kts 322°
2026-05-07 06:33 40.65759 17.94019 44 ft 0 kts 322°